Regional Weather Roundup
Issued by NWS Sioux Falls, SD

Home | Current Version | Previous Version | Text Only | Print | Product List | Glossary On
Versions: 1 2 3 4 5 6 7 8 9 10 11 12 13 14 15 16 17 18 19 20 21 22 23 24 25 26 27 28 29 30 31 32 33 34 35 36 37 38 39 40 41 42 43 44 45 46 47 48 49 50
000
ASUS43 KFSD 270010
RWRFSD

WEATHER ROUNDUP FOR SE SOUTH DAKOTA/SW MINNESOTA/NW IOWA
NATIONAL WEATHER SERVICE SIOUX FALLS SD
700 PM CDT TUE AUG 26 2014

NOTE: "FAIR" INDICATES FEW OR NO CLOUDS BELOW 12,000 FEET WITH NO
SIGNIFICANT WEATHER AND OR OBSTRUCTIONS TO VISIBILITY.


SDZ038>040-050-052>070-270100-
SOUTHEAST SOUTH DAKOTA

CITY           SKY/WX    TMP DP  RH WIND       PRES   REMARKS
CHAMBERLAIN    MOSUNNY   71  57  60 E9        30.10F
6HR MIN TEMP:  68; 6HR MAX TEMP:  73;

HURON          PTSUNNY   69  54  58 NE8       30.11F
6HR MIN TEMP:  65; 6HR MAX TEMP:  70;

MADISON        FAIR      68  57  68 SE5       30.15S
MITCHELL       CLOUDY    72  60  66 E6        30.11F
6HR MIN TEMP:  69; 6HR MAX TEMP:  75;

SIOUX FALLS    PTSUNNY   70  56  61 E7        30.13F
6HR MIN TEMP:  64; 6HR MAX TEMP:  73;

WINNER         FAIR      77  58  51 SE15      30.08F
YANKTON        MOSUNNY   70  59  68 E7        30.12S
$$

MNZ071-072-080-081-089-090-097-098-270100-
SOUTHWEST MINNESOTA

CITY           SKY/WX    TMP DP  RH WIND       PRES   REMARKS
FAIRMONT       MOSUNNY   64  54  68 NE5       30.15S
JACKSON        MOSUNNY   68  54  60 NE3       30.16S
LUVERNE        MOSUNNY   72  55  56 E3        30.14F
MARSHALL       MOSUNNY   68  55  64 NE6       30.14F
6HR MIN TEMP:  64; 6HR MAX TEMP:  73;

MONTEVIDEO     PTSUNNY   64  57  77 NE5       30.17F
PIPESTONE      MOSUNNY   70  54  56 SE3       30.15F
REDWOOD FALLS  MOSUNNY   72  55  55 N6        30.15S
TRACY          MOSUNNY   70  57  63 CALM      30.16F
WINDOM         PTSUNNY   68  55  64 NE5       30.16S
WORTHINGTON    PTSUNNY   70  55  60 NE6       30.16F
$$

IAZ001>003-012>014-020>022-031-032-NEZ013-014-SDZ071-270100-
NORTHWEST IOWA

CITY           SKY/WX    TMP DP  RH WIND       PRES   REMARKS
CHEROKEE       PTSUNNY   68  62  79 CALM      30.13S
DENISON        MOSUNNY   72  64  78 E6        30.11S
ESTHERVILLE    MOSUNNY   70  57  63 NE8       30.14F
LE MARS        PTSUNNY   70  61  73 SE6       30.13S
ORANGE CITY    PTSUNNY   72  59  64 E5        30.14S
SHELDON        PTSUNNY   68  59  73 NE6       30.12F
SIOUX CITY     CLOUDY    72  62  71 E6        30.12R
6HR MIN TEMP:  71; 6HR MAX TEMP:  75; 6HR PCP: TRACE;

SPENCER        PTSUNNY   69  59  70 E6        30.13F
6HR MIN TEMP:  65; 6HR MAX TEMP:  72;

STORM LAKE     CLOUDY    68  63  83 E5        30.14S
$$

ABBREVIATIONS USED IN REMARKS
   TC - TEMPERATURE IN CELSIUS
  WCI - WIND CHILL INDEX
   HX - HEAT INDEX
  VSB - VISIBILITY




USA.gov is the U.S. government's official web portal to all federal, state and local government web resources and services.